Regional Weather Roundup
Issued by NWS Little Rock, AR

Home | Current Version | Previous Version | Graphics & Text | Print | Product List | Glossary On
Versions: 1 2 3 4 5 6 7 8 9 10 11 12 13 14 15 16 17 18 19 20 21 22 23 24 25 26 27 28 29 30 31
000
ASUS44 KLZK 150805
RWRLZK

WEATHER ROUNDUP FOR ARKANSAS
NATIONAL WEATHER SERVICE LITTLE ROCK AR
200 AM CST FRI DEC 15 2017

NOTE: "FAIR" INDICATES FEW OR NO CLOUDS BELOW 12,000 FEET WITH NO
SIGNIFICANT WEATHER AND/OR OBSTRUCTIONS TO VISIBILITY.

ARZ001-003-010-029-150900-
NORTHWEST ARKANSAS

CITY           SKY/WX    TMP DP  RH WIND       PRES   REMARKS
FAYETTEVILLE   CLOUDY    26  24  92 S7        30.16R WCI  18
FORT SMITH     CLEAR     32  25  75 SW6       30.19S WCI  26
HARRISON       CLOUDY    33  26  75 CALM      30.12S
BENTONVILLE    PTCLDY    28  24  85 S5        30.16R WCI  23
ROGERS         PTCLDY    29  24  82 SW6       30.15R WCI  23
SILOAM SPGS    MOCLDY    27  23  85 S3        30.16R
$$

ARZ004-005-016-150900-
NORTH CENTRAL ARKANSAS

CITY           SKY/WX    TMP DP  RH WIND       PRES   REMARKS
BATESVILLE     CLEAR     30  23  75 W3        30.16S
FLIPPIN        CLOUDY    30  23  75 CALM      30.16R
MTN HOME       CLEAR     31  25  78 CALM      30.13R
$$

ARZ040-041-150900-
WEST CENTRAL ARKANSAS

CITY           SKY/WX    TMP DP  RH WIND       PRES   REMARKS
MENA           CLEAR     28  27  93 CALM      30.17R
MOUNT IDA      CLEAR     28  24  85 CALM      30.14F
$$

ARZ009-017-025-026-028-150900-
NORTHEAST ARKANSAS

CITY           SKY/WX    TMP DP  RH WIND       PRES   REMARKS
JONESBORO      CLEAR     30  25  81 CALM      30.15S
NEWPORT        PTCLDY    26  24  92 SW3       30.16S
BLYTHEVILLE    CLOUDY    30  27  88 CALM      30.15S
$$

ARZ022-023-033-042-044-150900-
CENTRAL ARKANSAS

CITY           SKY/WX    TMP DP  RH WIND       PRES   REMARKS
LITTLE ROCK    CLEAR     32  25  75 CALM      30.18S
N LITTLE ROCK    N/A     35  24  64 CALM      30.19F
JACKSONVILLE   CLEAR     27  21  80 CALM      30.15F
SEARCY         CLEAR     24  23  96 CALM      30.17F
HOT SPRINGS    CLEAR     32  26  78 CALM      30.17F
RUSSELLVILLE   CLEAR     26  23  88 CALM      30.16F
CLINTON        FAIR      25  23  93 CALM      30.17S
$$

ARZ036-150900-
EAST ARKANSAS

CITY           SKY/WX    TMP DP  RH WIND       PRES   REMARKS
WEST MEMPHIS   CLEAR     25  25 100 CALM      30.15F
$$

ARZ050-053-066-070-073-150900-
SOUTHWEST ARKANSAS

CITY           SKY/WX    TMP DP  RH WIND       PRES   REMARKS
ARKADELPHIA    FAIR      26  23  88 CALM      30.20S
CAMDEN         CLOUDY    30  27  86 CALM      30.19S
TEXARKANA      CLOUDY    34  29  82 CALM      30.19R
EL DORADO      PTCLDY    36  29  75 N3        30.20R
DE QUEEN       CLEAR     27  26  96 CALM      30.19R
$$

ARZ056-057-069-150900-
SOUTHEAST ARKANSAS

CITY           SKY/WX    TMP DP  RH WIND       PRES   REMARKS
PINE BLUFF     PTCLDY    34  25  69 NW3       30.18S
STUTTGART      PTCLDY    31  26  82 N6        30.17F WCI  25
MONTICELLO     CLEAR     37  26  64 CALM      30.17S

$$






USA.gov is the U.S. government's official web portal to all federal, state and local government web resources and services.